GFSNW_700_spd_273.txt.gz
Wind_Speed
24 23 23 23 23 23 22 21 20 20 20 21 21 20 16 14 16 17 16 13 13 11 10 7 7 8 6 7 9 10 8 7 6 9 2 1 5 7 7 2 3 11 13 21
24 24 24 24 24 23 22 21 19 19 20 19 19 19 18 15 16 18 16 14 14 13 10 6 9 10 8 9 10 6 13 5 5 1 1 5 11 12 12 13 14 20 6 18
24 24 25 25 24 23 21 20 18 19 21 21 18 18 18 16 17 15 15 13 14 13 12 10 8 11 10 12 14 14 16 13 12 10 12 14 18 16 16 15 12 19 24 38
25 24 25 25 25 23 22 23 20 19 21 23 18 18 13 18 16 15 14 14 14 13 10 12 12 11 12 15 17 16 13 19 18 18 15 16 15 13 8 14 15 18 27 27
25 25 27 26 25 24 24 24 17 19 16 22 20 19 20 16 18 14 15 14 13 15 13 13 6 8 11 13 11 11 12 12 14 17 14 12 17 17 10 10 10 13 15 17
26 27 27 27 25 25 24 21 18 14 17 19 19 19 17 17 17 15 14 13 13 13 13 13 15 15 15 16 18 19 19 14 10 8 8 14 20 15 11 8 10 12 19 14
27 27 27 25 24 23 19 18 16 16 14 16 16 14 19 16 17 16 13 12 13 12 14 17 18 18 18 20 19 19 22 17 11 9 12 3 8 5 10 11 12 15 9 10
27 26 25 24 22 21 19 18 17 16 15 13 16 18 16 17 17 18 18 17 16 17 16 17 13 10 13 16 15 14 16 18 10 6 7 20 21 20 13 12 23 17 11 13
26 24 23 21 21 19 18 17 15 15 13 15 16 17 18 17 18 19 20 18 17 17 17 13 7 5 5 5 4 9 11 15 19 10 5 5 2 12 11 18 23 11 12 18
24 23 22 21 19 18 16 16 15 14 15 14 14 19 19 17 19 18 17 17 19 16 17 15 11 10 10 6 6 11 17 20 27 27 16 14 19 17 15 14 13 12 18 21
23 22 20 19 18 17 16 15 15 14 14 13 13 16 18 18 19 19 15 13 17 16 15 10 10 9 9 10 15 11 15 14 17 20 15 17 14 12 23 20 23 23 21 24
21 20 20 19 19 17 15 15 15 13 14 12 14 16 18 19 19 20 21 22 18 11 8 7 5 9 10 12 14 18 19 26 17 17 17 18 18 17 20 23 28 24 25 19
20 20 19 19 18 16 16 15 15 15 13 12 14 15 17 16 17 20 23 24 26 25 24 22 21 21 20 20 21 24 27 28 30 30 34 34 35 37 40 40 39 32 30 31
21 20 19 17 17 16 16 16 15 14 12 12 13 12 11 13 16 19 21 24 27 27 28 27 26 28 20 26 25 28 29 32 36 38 36 34 29 27 29 31 37 38 33 31
18 19 18 17 16 15 15 14 13 12 12 4 2 2 10 12 15 12 15 19 22 25 27 28 29 30 29 32 36 41 35 34 34 33 20 25 24 23 22 23 24 28 28 27
20 18 16 16 15 14 13 12 12 12 11 11 12 10 13 15 19 23 19 17 20 22 23 27 31 30 28 22 37 39 32 31 34 34 23 25 28 25 18 18 26 23 21 21
18 17 17 15 14 13 12 11 10 9 10 10 8 10 12 15 17 17 15 16 18 19 23 27 28 27 23 33 40 30 25 17 17 20 22 28 24 23 18 22 26 23 24 20
19 18 16 14 13 12 12 12 12 11 9 9 6 9 10 10 13 15 16 15 16 22 23 28 25 26 25 33 28 24 20 20 21 18 20 28 31 23 20 20 17 25 19 18
18 16 15 13 12 12 11 10 11 10 10 7 10 10 9 8 9 10 12 14 17 19 24 25 22 25 28 28 26 21 19 22 22 20 19 22 28 24 19 15 18 18 17 20
16 15 14 13 12 11 10 8 8 12 15 18 19 15 16 15 16 15 13 11 10 14 15 14 16 26 24 18 19 24 24 24 23 26 24 16 21 28 25 21 19 19 17 20
16 16 14 12 10 9 7 6 6 6 5 5 2 2 2 5 13 14 8 6 6 6 8 10 8 21 24 21 21 24 29 26 23 23 24 24 22 22 30 28 25 20 24 17
14 11 11 10 8 6 6 7 7 6 4 4 5 4 5 6 7 5 7 10 7 9 7 6 6 15 20 26 26 28 24 23 24 20 24 23 26 21 19 23 28 23 17 16
14 14 12 6 8 8 6 8 5 5 7 7 8 7 7 8 7 8 8 7 10 8 7 8 17 21 24 24 30 25 28 26 15 18 13 6 13 16 17 11 6 9 14 17
17 12 10 7 5 7 8 11 11 13 12 14 14 13 8 10 14 11 8 12 10 8 10 14 16 17 19 19 17 14 22 11 2 2 2 6 9 4 3 6 9 13 15 18
13 8 7 11 11 11 12 14 14 14 14 17 19 20 21 21 16 10 7 6 8 7 7 9 10 9 11 12 12 9 6 8 2 14 15 7 5 8 10 12 16 19 21 23
11 9 8 11 13 13 13 12 13 15 17 16 16 14 7 11 9 10 10 10 13 13 16 10 9 18 22 24 23 24 28 30 32 32 34 34 32 29 23 21 22 27 29 29
8 8 11 10 12 12 14 15 17 19 19 18 13 5 8 8 11 15 15 21 22 16 17 20 33 24 23 27 29 28 29 31 30 32 34 36 35 35 36 36 32 32 31 32

GFSNW_700_spd_276.txt.gz
Wind_Speed
26 23 22 22 21 20 20 21 21 21 21 22 23 22 19 16 15 17 17 14 14 11 11 9 8 8 8 6 6 8 4 5 2 6 3 4 2 0 2 1 3 5 2 13
25 23 23 22 21 21 21 22 22 20 22 22 23 21 21 17 16 18 17 14 13 13 12 8 10 10 9 8 6 3 8 4 4 2 3 7 10 8 9 6 8 13 6 12
25 24 23 22 22 22 23 22 20 22 24 24 21 20 19 19 17 18 19 14 15 13 12 12 8 10 8 8 8 10 12 10 10 9 8 11 14 14 13 13 9 12 21 24
25 25 25 24 23 23 24 24 21 21 22 26 22 19 13 19 18 18 18 16 14 12 11 13 14 13 11 11 12 14 13 16 17 18 15 16 17 17 18 21 18 19 20 23
26 26 25 25 25 24 25 26 17 20 20 21 23 20 20 14 18 13 15 14 12 13 13 13 7 10 11 12 14 13 13 13 16 23 16 19 23 22 20 22 21 23 17 19
27 26 26 26 26 26 27 26 23 14 18 16 22 20 18 17 16 14 12 11 12 11 10 12 13 14 15 16 17 16 18 17 12 8 9 11 17 19 24 24 23 18 18 16
27 26 26 27 26 26 25 22 20 17 13 16 16 16 17 15 14 13 10 10 10 9 10 11 14 17 17 19 20 21 23 19 13 10 10 2 7 9 9 17 17 16 18 19
26 27 27 27 26 25 23 23 21 18 15 11 16 17 14 16 15 13 13 12 11 12 11 12 11 11 12 14 17 19 20 21 10 6 6 19 25 19 18 16 19 18 22 16
27 27 27 26 25 24 24 22 21 18 15 16 14 15 16 15 14 13 14 13 13 12 12 10 5 4 3 3 5 10 15 15 18 9 6 6 5 6 10 17 27 18 13 16
27 27 26 25 24 24 22 21 19 17 15 13 16 16 15 14 16 15 13 12 14 13 14 11 8 7 10 6 7 9 14 16 27 26 13 12 16 12 15 16 21 12 14 16
27 27 25 24 23 22 21 19 19 16 16 10 14 13 14 15 16 15 11 11 13 13 11 7 8 8 8 10 13 8 9 11 14 18 11 15 9 13 22 22 24 24 24 27
26 25 24 23 23 21 21 19 17 15 14 10 13 11 13 14 16 17 16 17 12 6 5 5 4 8 9 12 12 16 18 25 17 16 15 19 23 24 23 24 27 29 30 32
26 25 24 22 21 20 18 17 16 15 13 11 11 11 11 13 15 17 19 19 19 19 18 18 18 19 17 18 19 22 24 26 31 33 37 35 36 35 37 39 43 45 46 47
24 23 22 22 19 17 16 17 15 12 10 11 8 9 10 12 14 16 17 19 21 21 21 23 24 25 18 23 24 30 31 33 37 40 35 33 27 24 23 23 27 29 28 31
22 22 19 17 17 16 16 14 12 11 12 5 5 6 7 11 10 13 16 19 17 18 21 23 24 26 25 28 31 35 27 24 24 30 21 25 31 28 27 29 29 28 30 33
21 18 17 16 15 16 14 12 12 12 11 11 11 12 14 12 13 13 17 18 19 18 18 20 24 23 22 19 31 33 23 19 19 25 20 23 27 28 27 31 31 30 29 28
19 16 17 17 16 15 14 12 12 12 9 8 7 10 13 13 14 15 17 19 19 17 19 22 22 21 23 30 36 26 13 18 20 20 22 28 26 30 29 30 27 26 31 30
18 18 18 17 17 15 14 13 10 9 8 8 7 7 7 8 10 10 12 12 14 18 19 23 21 20 24 27 26 16 20 21 22 23 24 29 31 30 30 29 23 25 28 19
22 20 20 18 16 14 12 11 10 10 11 7 8 8 6 8 10 9 9 10 15 17 21 23 16 19 19 18 23 19 15 23 24 24 26 28 32 30 27 26 20 24 21 13
22 20 17 15 14 12 11 10 9 11 13 15 13 13 13 12 12 11 10 9 8 9 11 13 14 18 20 21 17 20 19 25 31 33 30 27 27 27 24 24 22 27 22 19
20 19 17 13 13 10 8 6 7 6 5 6 9 9 6 6 8 7 6 5 6 5 6 9 6 12 19 17 18 18 23 26 24 29 30 26 27 30 30 25 25 26 28 25
18 14 12 11 11 7 7 7 7 6 7 7 9 6 3 2 3 3 4 5 5 7 6 6 6 16 16 19 22 25 27 28 27 30 26 19 18 20 19 22 24 20 24 29
16 15 13 7 9 7 6 8 7 7 7 8 7 6 3 2 3 4 5 5 7 7 7 7 15 19 19 20 21 24 25 24 23 19 15 13 7 9 11 14 13 11 11 13
17 12 10 8 5 8 10 10 9 10 10 10 9 8 4 3 5 5 4 7 8 7 9 16 17 17 18 20 18 17 17 17 15 12 12 15 17 15 14 14 17 18 14 13
12 8 7 11 9 8 8 10 10 11 12 12 12 12 12 13 8 7 6 5 7 6 8 13 14 13 7 9 14 19 24 27 27 30 31 31 30 30 27 28 30 28 25 23
9 8 7 9 10 9 10 11 12 13 13 13 12 7 5 6 6 7 9 8 9 11 16 13 12 14 18 20 24 26 25 26 27 27 30 29 27 30 32 31 31 30 31 33
8 7 8 8 10 12 13 13 14 14 14 14 11 5 5 5 8 9 12 19 20 21 22 23 28 32 36 37 32 28 28 29 28 29 29 29 28 30 30 32 31 32 31 34

GFSNW_700_spd_279.txt.gz
Wind_Speed
30 28 25 22 21 20 20 19 21 22 23 25 26 24 22 18 16 13 15 13 12 9 8 7 7 7 7 3 5 5 2 3 2 5 5 5 4 3 2 2 4 5 2 8
31 29 26 24 22 21 20 21 21 21 24 24 26 24 22 20 17 16 15 14 14 12 9 7 9 8 7 7 6 3 5 2 3 3 4 8 11 10 9 7 7 9 7 6
32 29 27 24 23 22 22 22 21 22 25 26 24 23 22 21 19 18 18 15 14 11 11 13 6 8 7 8 8 8 9 8 8 8 8 12 14 13 13 14 10 10 20 24
31 29 27 25 24 24 24 24 21 23 26 29 22 22 15 20 20 20 19 17 14 11 12 13 14 13 11 11 11 10 10 12 13 14 15 16 19 21 22 25 26 20 18 23
31 30 28 25 25 25 25 26 20 22 17 27 25 22 22 16 19 14 16 17 13 12 12 11 7 9 12 12 10 11 15 12 12 19 20 17 21 24 27 29 30 32 30 28
31 29 27 26 27 26 26 25 23 18 21 18 26 23 19 18 15 15 14 14 11 11 11 12 11 10 10 12 12 13 14 12 12 9 11 13 21 8 14 21 29 30 29 22
30 29 27 27 27 26 25 24 22 17 16 18 20 22 19 14 15 15 13 12 12 11 10 11 10 11 12 15 17 18 17 16 14 11 12 3 7 10 11 14 17 19 23 20
29 28 28 28 27 25 24 24 23 22 16 17 19 18 20 19 16 16 13 10 10 9 9 9 8 8 10 12 16 21 21 20 9 6 6 18 20 7 14 15 19 18 20 20
28 28 27 26 25 24 23 24 23 20 17 16 17 19 16 15 16 16 14 12 11 10 10 8 6 5 4 4 5 8 12 17 16 9 4 5 5 11 13 11 21 9 13 15
28 28 27 24 24 23 24 23 22 20 17 15 17 18 18 18 17 15 13 12 12 11 10 9 8 7 8 5 5 6 11 14 24 23 10 12 12 17 15 8 13 13 19 18
26 25 25 25 24 24 24 22 21 19 18 14 15 16 14 15 16 13 11 13 14 12 11 7 7 8 8 8 11 9 9 8 10 14 9 12 6 11 16 20 23 24 25 25
28 26 25 25 24 24 23 22 20 18 19 13 14 14 16 15 15 13 14 14 7 8 7 9 6 6 7 9 9 15 13 16 9 13 14 19 23 27 27 30 30 30 34 35
26 26 25 25 23 22 22 21 20 19 17 13 13 15 13 13 14 15 15 15 14 15 14 14 14 14 14 14 17 19 21 21 25 27 30 31 32 32 35 36 40 44 45 48
26 26 25 24 23 22 20 19 18 17 15 13 14 14 13 13 14 14 14 15 17 16 15 16 17 19 13 18 20 25 25 26 26 27 27 22 23 25 26 29 33 35 37 33
27 26 24 23 21 20 20 18 17 17 16 12 14 11 11 12 12 12 14 15 16 16 16 15 18 21 20 22 25 30 18 13 18 24 23 25 30 26 27 30 30 31 34 37
26 24 22 22 22 19 17 18 17 16 18 12 12 10 11 11 12 14 15 16 15 14 15 17 20 21 17 14 23 22 18 19 21 25 25 28 32 31 28 31 30 29 31 32
25 24 23 20 20 20 17 16 16 16 14 12 9 9 14 13 14 15 15 15 16 16 18 19 19 18 18 24 30 23 22 18 17 23 28 30 26 32 32 33 32 33 33 32
25 22 21 21 18 15 15 15 14 14 14 14 8 8 10 9 11 10 10 11 12 15 17 20 19 18 21 19 22 17 13 19 19 19 22 29 36 34 32 31 34 34 31 24
22 22 22 19 18 15 15 14 15 15 15 9 8 9 10 11 12 11 11 12 12 15 18 20 14 17 15 18 17 17 18 19 20 22 26 26 29 32 31 30 28 31 29 22
22 20 19 19 17 18 16 14 13 13 14 13 9 10 11 8 9 9 8 8 9 7 10 11 12 16 18 21 18 15 14 17 22 27 28 30 33 30 29 29 32 29 28 27
23 23 20 17 17 14 14 10 10 10 8 10 14 13 11 12 10 9 6 4 4 4 5 7 5 10 12 14 15 17 17 21 23 25 26 27 30 33 32 26 19 22 26 25
20 17 16 17 17 10 8 10 8 8 8 8 9 8 8 7 5 4 4 5 4 4 5 5 5 11 11 14 18 20 21 23 24 25 25 23 23 24 24 22 17 15 17 19
19 19 18 11 10 7 9 11 8 9 9 10 11 9 7 4 3 2 4 3 5 6 6 6 10 12 13 15 17 18 19 17 17 18 21 24 24 26 28 25 25 25 27 26
19 14 12 9 7 8 9 10 9 10 10 12 11 9 5 3 1 3 2 6 6 5 5 7 12 14 17 19 18 17 15 15 19 22 24 25 26 26 25 27 31 31 28 27
13 9 7 10 8 9 8 9 9 10 10 8 6 5 5 5 4 4 6 5 5 5 6 11 15 16 14 12 16 20 26 26 25 24 25 24 25 28 29 28 28 30 33 32
10 7 7 9 9 9 10 10 10 10 9 7 6 4 3 5 5 6 7 5 6 8 11 11 14 19 27 32 34 35 32 28 25 25 26 27 28 30 31 31 32 33 33 35
7 8 8 8 10 8 9 8 8 6 5 5 3 3 4 4 5 7 9 14 16 19 24 32 37 39 39 36 35 35 33 33 32 32 32 32 32 33 33 34 34 36 36 38

GFSNW_700_spd_285.txt.gz
Wind_Speed
45 43 40 38 36 35 35 35 33 34 35 37 38 36 26 18 19 18 17 12 10 14 15 12 10 9 6 10 8 5 6 6 5 5 9 8 6 4 4 3 3 7 7 10
45 43 42 40 37 35 35 37 32 35 37 37 36 35 30 23 19 18 15 15 15 14 13 8 10 11 10 10 9 6 7 4 5 3 3 6 7 8 8 9 9 13 6 3
45 43 42 40 38 37 37 35 31 38 39 38 35 34 30 27 23 21 18 15 15 15 14 10 11 12 12 11 11 8 6 7 8 5 5 9 10 9 10 13 8 9 20 21
45 43 42 41 39 38 38 38 32 37 42 41 34 28 22 28 27 23 21 17 15 15 13 13 10 12 11 10 9 9 7 6 9 11 12 12 11 16 14 21 21 15 11 15
46 44 43 40 39 39 39 39 35 35 20 36 30 28 25 24 21 21 23 16 16 14 14 12 14 14 12 9 9 12 11 6 8 12 10 11 17 20 21 24 22 26 26 29
46 44 42 41 40 39 39 37 33 27 30 34 31 31 24 21 23 23 18 16 17 15 14 16 12 11 11 11 9 10 9 9 5 5 7 11 17 13 19 19 21 22 24 20
44 43 41 40 39 40 37 36 31 24 27 25 34 26 23 22 18 21 18 18 17 23 17 15 14 12 12 11 9 10 8 8 6 5 6 4 4 7 4 10 16 18 22 22
43 41 40 39 38 35 34 33 30 23 23 24 26 26 19 25 23 16 21 24 25 17 17 16 10 10 11 14 14 12 10 11 5 4 7 15 16 7 11 8 12 12 16 17
43 41 39 37 35 34 33 31 29 26 21 23 22 25 27 27 26 23 19 21 21 21 20 16 10 6 8 6 6 15 12 12 10 6 4 4 3 4 12 8 13 2 3 9
43 40 38 36 35 34 33 32 30 27 22 21 22 25 26 23 25 26 25 22 22 20 20 18 9 7 7 6 8 10 14 12 19 14 9 11 11 10 9 4 4 7 12 16
41 39 37 36 34 31 32 31 30 26 26 18 26 26 26 24 27 25 25 25 24 22 19 14 11 9 10 9 7 11 13 10 9 13 8 9 8 3 7 9 15 19 21 23
39 37 35 32 32 31 31 30 29 27 23 17 22 23 22 26 26 25 18 24 14 19 16 16 11 11 8 9 5 13 10 12 8 11 5 9 11 13 19 20 21 23 24 24
36 35 34 34 32 29 30 29 28 27 25 18 25 26 24 23 21 21 21 22 17 18 19 12 12 8 8 7 10 10 11 11 16 11 14 11 13 16 17 14 19 23 26 27
34 32 32 30 30 31 30 29 27 27 25 17 26 26 25 25 23 22 20 18 18 15 16 16 15 13 11 8 11 12 8 13 11 15 17 18 15 11 20 24 24 25 26 27
35 33 32 32 32 30 29 29 28 28 26 19 25 25 24 23 22 21 19 18 20 18 17 17 15 16 13 15 19 18 13 14 12 11 13 22 19 27 24 24 28 29 31 31
34 34 32 30 30 31 31 30 29 28 29 12 23 24 25 22 21 21 20 18 19 17 18 17 18 17 13 10 7 9 12 19 20 20 26 27 26 21 22 24 25 28 31 32
36 35 33 31 30 30 31 31 29 28 26 12 17 18 23 23 21 20 18 18 17 18 16 16 14 13 14 18 13 10 24 19 18 17 21 18 19 19 19 20 26 29 31 31
31 31 31 30 29 27 27 25 25 26 27 17 8 12 21 21 20 19 18 17 17 17 17 16 12 18 16 11 7 20 21 15 12 16 22 19 19 18 18 21 24 27 27 29
33 32 30 29 29 28 23 21 23 25 23 12 10 12 15 18 20 16 16 16 15 14 14 15 12 11 10 7 9 17 15 15 16 15 15 13 13 15 17 19 20 22 23 27
34 33 32 29 28 27 20 20 25 25 24 17 11 12 12 13 16 16 12 9 9 5 10 11 12 10 9 19 15 16 13 11 13 16 16 18 19 22 24 24 24 25 26 28
35 34 34 31 28 24 20 13 17 14 11 15 17 15 12 14 10 14 11 6 4 3 7 6 3 4 17 9 9 10 11 13 16 17 19 21 25 27 29 28 28 29 32 34
32 30 28 31 26 11 8 14 10 9 15 10 18 19 19 18 15 10 9 6 6 4 7 5 3 12 16 13 11 12 14 17 20 22 24 25 27 28 30 30 32 34 35 36
28 29 29 18 11 8 10 13 12 12 11 16 18 19 17 15 14 8 7 6 4 5 5 4 8 15 15 14 13 15 19 22 24 26 27 28 30 34 36 38 37 37 38 39
28 19 16 9 8 11 11 15 17 15 15 15 17 17 16 13 13 7 5 6 5 5 5 6 15 13 14 16 18 21 24 25 27 29 33 36 39 39 38 35 38 42 44 45
20 11 9 12 11 15 16 14 14 13 13 14 17 16 9 12 6 7 5 5 4 5 6 11 16 17 19 21 22 26 30 34 37 37 38 36 39 40 39 39 38 40 43 45
16 8 12 15 13 14 16 16 15 17 17 17 14 10 6 7 5 7 6 4 5 8 16 17 18 20 21 24 32 37 37 36 37 33 34 38 37 39 39 39 37 38 39 40
12 12 14 18 16 17 17 16 14 14 15 15 9 8 5 6 5 6 9 9 9 15 17 17 20 26 31 32 32 34 35 36 37 38 38 37 35 37 37 34 33 35 38 39